CYHZ

Halifax / Stanfield International Airport

ICAO Code CYHZ
IATA Code YHZ
Name Halifax / Stanfield International Airport
Location Halifax, Nova Scotia, CA
Elevation 477 Feet / 145.4 Meters
Latitude 44.88079834
Longitude -63.50859833
METAR CYHZ 100200Z 01016G23KT 2 1/4SM -DZ BR OVC003 02/02 A3010 RMK ST8 CIG VRB 2-4 SLP201
Extra information Display NOTAMS
Display Charts
Runway Length Width Surface Elevation
05 10500 ft 200 ft ASP 449 ft
14 7700 ft 200 ft ASP 435 ft
23 10500 ft 200 ft ASP 443 ft
32 7700 ft 200 ft ASP 476 ft